Location: Unspecified
(0.0000°N, 0.0000°E)
Time: 00:18:41
(UTC+00:00)

Explorer 7 - All Passes

Search period start: 26 October 2014 00:00
Search period end: 05 November 2014 00:00
Orbit: 491 x 705 km, 50.3° (Epoch: 25 October)

Date Brightness Start Highest point End Pass type
(mag) Time Alt. Az. Time Alt. Az. Time Alt. Az.
26 Oct - 00:28:31 10° WSW 00:32:05 35° NW 00:35:49 10° NNE night (unlit)
26 Oct - 10:52:55 10° N 10:56:53 23° NE 11:00:45 10° ESE daylight
26 Oct - 12:33:29 10° WNW 12:37:41 28° SW 12:41:45 10° S daylight
26 Oct - 22:58:14 10° S 23:01:29 26° SE 23:04:48 10° ENE night (unlit)
27 Oct - 00:39:56 10° W 00:42:09 15° NW 00:44:26 10° NNW night (unlit)
27 Oct - 11:02:04 10° NNW 11:06:55 51° NE 11:11:37 10° SE daylight
27 Oct - 12:45:30 10° W 12:47:41 13° SW 12:49:51 10° SSW daylight
27 Oct - 23:07:38 10° SSW 23:11:26 72° SE 23:15:22 10° NE night (unlit)
28 Oct - 11:11:54 10° NW 11:16:54 71° SW 11:21:42 10° SSE daylight
28 Oct - 23:17:49 10° WSW 23:21:24 39° NW 23:25:06 10° NNE night (unlit)
29 Oct - 09:42:12 10° N 09:46:01 22° NE 09:49:46 10° ESE daylight
29 Oct - 11:22:26 10° WNW 11:26:50 31° SW 11:31:08 10° S daylight
29 Oct - 21:47:43 10° S 21:50:46 23° SE 21:53:51 10° ENE night (unlit)
29 Oct - 23:29:01 10° W 23:31:24 16° NW 23:33:50 10° NNW night (unlit)
30 Oct - 09:51:12 10° NNW 09:56:01 46° NE 10:00:44 10° SE daylight
30 Oct - 11:34:04 10° W 11:36:48 15° SW 11:39:31 10° SSW daylight
30 Oct - 21:56:57 10° SSW 22:00:41 63° SE 22:04:31 10° NE night (unlit)
31 Oct - 10:00:55 10° NW 10:05:57 79° SW 10:10:52 10° SSE daylight
31 Oct - 22:07:00 10° SW 22:10:37 44° NW 22:14:18 10° NNE night (unlit)
01 Nov - 08:31:26 10° N 08:35:02 20° NE 08:38:38 10° E daylight
01 Nov - 10:11:18 10° WNW 10:15:52 35° SW 10:20:22 10° SSE daylight
01 Nov - 20:37:05 10° S 20:39:56 20° SE 20:42:48 10° ENE night (unlit)
01 Nov - 22:18:00 10° W 22:20:34 17° NW 22:23:10 10° N night (unlit)
02 Nov - 08:40:16 10° NNW 08:45:00 42° NE 08:49:42 10° ESE daylight
02 Nov - 10:22:38 10° W 10:25:48 17° SW 10:28:56 10° SSW daylight
02 Nov - 20:46:09 10° SSW 20:49:51 54° SE 20:53:34 10° NE night (unlit)
03 Nov - 08:49:52 10° NW 08:54:54 88° SW 08:59:54 10° SE daylight
03 Nov - 20:56:04 10° SW 20:59:44 50° NW 21:03:25 10° NNE night (unlit)
04 Nov - 07:20:37 10° N 07:23:57 18° NE 07:27:18 10° E daylight
04 Nov - 09:00:06 10° WNW 09:04:47 39° SW 09:09:27 10° SSE daylight
04 Nov - 19:26:22 10° S 19:29:00 18° SE 19:31:38 10° E visible
04 Nov - 21:06:52 10° W 21:09:37 19° NW 21:12:23 10° N night (unlit)
